Погода в Кюсюре

Погода в Кюсюре : погода сейчас, прогноз погоды и архив. Всё, что Вы хотите узнать о погоде в Кюсюре!

Хотите узнать прогноз погоды в Кюсюре? Тогда Вам сюда: Погода в Кюсюре

Поиск расширенной информации на нашем сайте:

Другие новости

Новости СМИ2

Главная страница сайта

Новости сайта

03.07.2017

Напоминаем, что на нашем специализированном сайте Метеоцентр.Азия вы можете получить высокодетализированные автоматические прогнозы погоды по пунктам России, СНГ и мира в авиационном формате (включающие направление и скорость ветра, видимость, явления погоды, количество и форму облачности, нижнюю и верхнюю границу облачности).


Погода в Кюсюре - сегодня

Время (UTC), дата Ветер
(°,м/с) 
Видим.   Явления Облачность Т
(°С)
Тd
(°С)
f(%) Тe
(°С)
Pmin
(гПа)
dP
(гПа)
Po
(мм)
O2
(г/м3)
Тmin Tmax R s Состояние
почвы
00 18.11.17 190 (Ю) 4000 м  слаб. снег  10/0 средняя 
[As op]
-18.9 -20.1 90 -22  1020  761  331  -18.9    0.1  37  равномерный
сухой снег
100% 
03 18.11.17 190 (Ю) 4000 м  слаб. снег  10/0 средняя 
[As op]
-19 -20.9 85 -22  1019.3  -0.7  761  331  -19.2         
06 18.11.17 190 (Ю) 4000 м  слаб. снег  10/0 средняя 
[As op]
-19.6 -21.5 85 -22  1019.3  761  332           
09 18.11.17 190 (Ю) 4000 м  слаб. снег  10/0 средняя 
[As op]
-19.6 -21.5 85 -22  1019.3  761  332           
12 18.11.17 210 (ЮЗ) 4000 м  слаб. снег  10/0 средняя 
[As op]
-21.4 -23.9 80 -27  1019.9  0.6  761  335    -18.9     
15 18.11.17 190 (Ю) 4000 м  слаб. снег  10/0 средняя 
[As op]
-22.6 -25.1 80 -27  1020.6  0.6  762  336           
18 18.11.17 190 (Ю) 4000 м  слаб. снег  10/0 средняя 
[As op]
-23.5 -26 80 -27  1021.8  1.2  763  338           
21 18.11.17 190 (Ю) 10 км  слаб. снег  10/0 средняя 
[As op]
-23.8 -26.3 80 -27  1023.1  1.3  764  339           
00 19.11.17 190 (Ю) 10 км  слаб. снег  10/0 средняя 
[As op]
-24.5 -27.7 75 -28  1024.1  764  340  -24.6    0.8  38  равномерный
сухой снег
100% 
03 19.11.17 200 (Ю) 10 км  слаб. снег  10/0 средняя 
[As op]
-24.6 -27.9 74 -28  1024.7  0.6  765  341  -24.8         
06 19.11.17 200 (Ю) 10 км  слаб. снег  10/0 средняя 
[As op]
-25 -27.4 80 -28  1025.9  1.2  766  342           
09 19.11.17 200 (Ю) 10 км  слаб. снег  10/0 средняя, верхняя 
[Ac trans|Cs]
-25.8 -28.3 79 -29  1026.5  0.6  766  343           
12 19.11.17 200 (Ю) 20000 м  слаб. снег  10/0 средняя, верхняя 
[Ac trans|Cs]
-27.2 -29.6 80 -28  1026.2  -0.3  766  345    -24.3  0.6     
15 19.11.17 тихо ()   10 км  слаб. снег  10/0 средняя, верхняя 
[Ac trans|Cs]
-26.4 -28.9 79 -26  1024.7  -1.5  765  343           
18 19.11.17 тихо ()   10 км  слаб. снег  10/0 средняя, верхняя 
[Ac trans|Cs]
-26.4 -28.9 79 -26  1022.2  -2.5  763  342           
21 19.11.17 тихо ()   20000 м  слаб. снег  10/0 средняя, верхняя 
[Ac trans|Cs]
-26.8 -29.3 79 -27  1020  -2.2  761  342           
00 20.11.17 тихо ()   10 км  слаб. снег  10/0 средняя, верхняя 
[Ac trans|Cs]
-26.4 -28.9 79 -26  1017.5  -2.5  760  341  -27.4    0.8  38  равномерный
сухой снег
100% 
03 20.11.17 тихо ()   20000 м  {снег}  10/0 средняя, верхняя 
[Ac trans|Cs]
-27 -29.5 79 -27  1014.4  -3.1  757  340           
06 20.11.17 тихо ()   10 км  слаб. снег  10/0 средняя 
[As op]
-25.3 -27.8 80 -25  1012.3  -2.1  756  337           
09 20.11.17 200 (Ю) 10 км  слаб. снег  10/0 средняя 
[As op]
-26.4 -28.9 79 -30  1009.6  -2.7  754  338           
12 20.11.17 200 (Ю) 10 км  слаб. снег  10/0 средняя 
[As op]
-27.5 -30 79 -31  1007.8  -1.7  752  339    -25.5  0.0     
18 20.11.17 030 (СВ) 10 км  слаб. снег  10/0 средняя 
[As op]
-9.9 -13.5 75 -15  1004.9  -1.7  750  315           
21 20.11.17 030 (СВ) 6{12}  20000 м  слаб. снег  10/0 средняя 
[As op]
-10.2 -14.6 70 -16  1006.6  1.7  750  315           
00 21.11.17 030 (СВ) 10 км  позёмок{снег}  10/0 средняя 
[As op]
-9.4 -12.9 76 -15  1005.4  -1.2  751  314  -10.8    0.0  36  равномерный
сухой снег
100% 
03 21.11.17 020 (С) 7-11{13}  4000 м  слаб. снег  10/0 средняя 
[As op]
-10.7 -15.1 70 -17  1005.9  0.5  751  316           
Время (UTC), дата Ветер
(°,м/с) 
Видим.   Явления Облачность Т
(°С)
Тd
(°С)
f(%) Тe
(°С)
Pmin
(гПа)
dP
(гПа)
Po
(мм)
O2
(г/м3)
Тmin Tmax R s Состояние
почвы

Для получения пояснительной информации подведите курсор к названию столбца.

ПОГОДА в Кюсюре - архив

Всё, что Вы хотите узнать о погоде в Кюсюре - удобно и подробно!

Выберите нужную дату (начиная с 1 января 2015* года) и нажмите кнопку "Найти".
Будут отображены архивные сводки погоды по пункту Кюсюр, начиная с указанной даты.


Отображать данные в формате CSV (для использования в таблицах Excel)


Внимание! Наш архив погоды предназначен исключительно для личного некоммерческого использования в познавательных целях. Если Вам необходимы официальные справки о состоянии погоды (для производственных, юридических, коммерческих и т.п. целей), обращайтесь в органы Росгидромета.

*Примечание: данная дата относится к архиву по метеостанциям СССР (Россия, СНГ, Балтия).
Архив по метеостанциям Зарубежной Европы и Азии (кроме Китая) хранится 10 дней, по другим регионам земного шара (Китай, Африка, Америка, Австралия, Океания) - 1 день.

Кюсюр - район местоположения метеостанции


Название, широта, долгота, высота метеостанции:
Кюсюр 70.7°ш. 127.4°д. 33 м над ур. моря [Российская Федерация]

Дополнительная информация

В oтличие oт бoльшинства пoгoдных сайтoв мы публикуем пoдрoбную метеoинфoрмацию в детальнoм прoфессиoнальнoм фoрмате.

Характеристики температуры и влажнoсти вoздуха измеряются на высoте 2 м в тени вдали oт зданий и деревьев.
Скoрoсть ветра измеряется на высoте 10 м (на урoвне рoста челoвека скoрoсть ветра ниже в 1.5-2 раза). Если метеoстанция нахoдится в гoрoде или в лесу, тo скoрoсть ветра занижена на 2-4 м/с пo сравнению с oткрытым местoм. Скoрoсть ветра над акватoриями крупных рек и oзёр, а также на вершинах хoлмoв на 2-5 м/с выше, чем в oбычных услoвиях.
Атмoсфернoе давление в разных тoчках местнoсти мoжет значительнo oтличаться oт давления на метеoстанции, в зависимoсти oт услoвий рельефа (при пoдъёме на 10 м давление пoнижается примернo на 1 мм рт.ст.).